カタログに戻る

FENGYUN 1C DEB

運用中SSO
NORAD 30250·DEBRIS·🇨🇳 China

打ち上げ May 10, 1999 から Taiyuan Satellite Launch Center

Loading…

次のパス (今後24時間)

TLE

最新Source: Space-Track

元期: Sep 14, 2026, 10:39 UTC

1 30250U 99025XK  26257.44428491  .00000154  00000-0  12617-3 0  9993
2 30250  98.7694 243.5775 0065824 173.9959 338.5625 14.01883257  3549

AllMySatでFENGYUN 1C DEBをリアルタイム追跡

Download on the App Store